Home > Weather > Oxford > Past weeks

Flag for United Kingdom Past Weather in Oxford, England, United Kingdom — Yesterday and Last 2 Weeks

Now
64 °F

Overcast.


Feels Like: 64 °F
Forecast: 57 / 67 °F
Wind: 7 mph from Southwest

Location: Benson

Current Time: Jul 27, 2016 at 10:45:31 AM

Latest Report: Jul 27, 2016 at 9:50 AM


Visibility: N/A

Pressure: 29.95 "Hg

Humidity: 88%

Dew Point: 61 °F

Location of OxfordLocation

Past Weather in Oxford — Graph

°F

Oxford Temperature Yesterday

Maximum temperature yesterday: 72 °F (at 4:50 PM)
Minimum temperature yesterday: 48 °F (at 4:50 AM)
Average temperature yesterday: 62 °F

High & Low Weather Summary for the Past Weeks

 TemperatureHumidityPressure
High91 °F (Jul 19, 3:50 PM)100% (Jul 15, 2:50 AM)30.30 "Hg (Jul 15, 2:50 AM)
Low43 °F (Jul 15, 3:50 AM)36% (Jul 19, 3:50 PM)29.68 "Hg (Jul 20, 7:50 AM)
Average65 °F74%30.09 "Hg
* Reported Jul 12 8:50 AM — Jul 27 8:50 AM, Oxford, Weather by CustomWeather, © 2016

Note: Actual official high and low records may vary slightly from our data, if they occured in-between our weather recording intervals... More about our weather records

Advertising

Oxford Weather History for the Previous 24 Hours

Scroll right to see more
 ConditionsComfort  
Time TempWeatherWind HumidityBarometerVisibility
8:50 AM
Wed, Jul 27
63 °FLight rain. Overcast.8 mph94%29.95 "HgN/A
7:50 AM63 °FLight rain. Mostly cloudy.9 mph94%29.95 "HgN/A
6:50 AM61 °FLight rain. Mostly cloudy.8 mph100%29.95 "Hg4 mi
5:50 AM61 °FLight rain. Mostly cloudy.9 mph94%29.98 "HgN/A
4:50 AM63 °FOvercast.12 mph88%29.98 "HgN/A
3:50 AM61 °FLight rain. Partly cloudy.10 mph94%30.01 "HgN/A
2:50 AM63 °FPassing clouds.10 mph83%30.01 "HgN/A
1:50 AM61 °FPassing clouds.8 mph88%30.04 "HgN/A
12:50 AM63 °FPartly cloudy.9 mph83%30.07 "HgN/A
11:50 PM
Tue, Jul 26
63 °FPassing clouds.8 mph83%30.07 "HgN/A
10:50 PM63 °FPartly cloudy.9 mph83%30.09 "HgN/A
9:50 PM64 °FPartly sunny.8 mph78%30.09 "HgN/A
8:50 PM64 °FPartly sunny.9 mph78%30.09 "HgN/A
7:50 PM66 °FPartly sunny.6 mph68%30.09 "HgN/A
6:50 PM68 °FPartly sunny.9 mph60%30.09 "HgN/A
5:50 PM70 °FPartly sunny.13 mph53%30.09 "HgN/A
4:50 PM72 °FBroken clouds.12 mph47%30.12 "HgN/A
3:50 PM70 °FSunny.9 mph57%30.12 "Hg10 mi
2:50 PM66 °FSunny.12 mph64%30.15 "Hg10 mi
1:50 PM68 °FBroken clouds.10 mph60%30.15 "HgN/A
12:50 PM68 °FPartly sunny.8 mph60%30.15 "HgN/A
11:50 AM68 °FPartly sunny.6 mph60%30.15 "HgN/A
10:50 AM68 °FBroken clouds.8 mph56%30.15 "HgN/A
Weather by CustomWeather, © 2016

See weather overviewHow to use our weather pages